TimeEST,TemperatureF,Dew PointF,Humidity,Sea Level PressureIn,VisibilityMPH,Wind Direction,Wind SpeedMPH,Gust SpeedMPH,PrecipitationIn,Events,Conditions,WindDirDegrees,DateUTC
4:18 AM,35.6,26.6,70,30.15,12.0,NNW,8.1,-,N/A,,Overcast,330,2012-11-05 09:18:00
4:55 AM,35.6,24.8,65,30.20,12.0,NNW,8.1,-,N/A,,Overcast,330,2012-11-05 09:55:00
5:55 AM,33.8,24.8,70,30.21,12.0,NNW,6.9,-,N/A,,Mostly Cloudy,340,2012-11-05 10:55:00
6:55 AM,33.8,26.6,75,30.21,12.0,WNW,6.9,-,N/A,,Mostly Cloudy,300,2012-11-05 11:55:00
7:55 AM,33.8,26.6,75,30.22,12.0,NW,4.6,-,N/A,,Mostly Cloudy,310,2012-11-05 12:55:00
8:55 AM,35.6,28.4,75,30.23,12.0,North,4.6,-,N/A,,Mostly Cloudy,360,2012-11-05 13:55:00
9:55 AM,35.6,28.4,75,30.24,12.0,North,6.9,-,N/A,,Overcast,360,2012-11-05 14:55:00
10:55 AM,37.4,28.4,70,30.25,12.0,NNE,4.6,-,N/A,,Overcast,30,2012-11-05 15:55:00
11:55 AM,39.2,28.4,65,30.24,12.0,Variable,5.8,-,N/A,,Overcast,0,2012-11-05 16:55:00
12:18 PM,39.2,28.4,65,30.19,12.0,North,6.9,-,N/A,,Overcast,350,2012-11-05 17:18:00
12:44 PM,39.2,28.4,65,30.18,12.0,NE,2.3,-,N/A,,Overcast,40,2012-11-05 17:44:00
12:55 PM,39.2,30.2,70,30.22,12.0,NE,4.6,-,N/A,,Overcast,50,2012-11-05 17:55:00
1:55 PM,39.2,30.2,70,30.21,12.0,East,4.6,-,N/A,,Mostly Cloudy,100,2012-11-05 18:55:00
2:55 PM,39.2,30.2,70,30.20,12.0,East,5.8,-,N/A,,Overcast,100,2012-11-05 19:55:00
3:55 PM,37.4,28.4,70,30.20,12.0,ESE,3.5,-,N/A,,Overcast,110,2012-11-05 20:55:00
4:55 PM,37.4,28.4,70,30.19,12.0,ESE,4.6,-,N/A,,Mostly Cloudy,120,2012-11-05 21:55:00
5:55 PM,37.4,30.2,75,30.15,12.0,ESE,3.5,-,N/A,,Mostly Cloudy,110,2012-11-05 22:55:00
6:55 PM,37.4,30.2,75,30.22,12.0,East,5.8,-,N/A,,Mostly Cloudy,100,2012-11-05 23:55:00
7:55 PM,37.4,28.4,70,30.22,12.0,East,5.8,-,N/A,,Mostly Cloudy,100,2012-11-06 00:55:00
8:55 PM,37.4,26.6,65,30.21,12.0,East,8.1,-,N/A,,Mostly Cloudy,90,2012-11-06 01:55:00
9:55 PM,35.6,26.6,70,30.21,12.0,ESE,5.8,-,N/A,,Mostly Cloudy,110,2012-11-06 02:55:00
10:55 PM,35.6,24.8,65,30.21,12.0,SE,4.6,-,N/A,,Mostly Cloudy,140,2012-11-06 03:55:00